CZ-3B DEB, 42472

Orbit data source: Space-Track

CZ-3B DEB, 42472 is space debris in HEO originally from a launch on Mon, 19 Dec 2011 UTC launched from the Xichang Space Center, China (XSC). Debris objects in space refer to the collection of defunct objects orbiting the Earth. Examples of debris include non-operational satellites, rocket bodies, and fragments generated from explosions, collisions, or faulty payload assembly.

Loading next visibility...
Identifier
42472, 2011-077AM
Orbit
HEO
Country
Flag of CNCN / PRC
Related business
Manufacturer
CALT
Mission
Spacecraft
Bus & Motor
Unknown
Mass
Unknown
Launch date (UTC)
2011-12-19 (14 years ago)
Launch vehicle
Unknown
Launch site
Xichang Space Center, China (XSC)
Object type
Payload
Rocket body
Debris
Shape & HBR
Unknown
Radar Cross Section
Medium (>0.1 m² and <1 m²)

Expand to show TLE details & history
Last TLE update: 18 hours ago

TLE from 18 hours ago
0 CZ-3B DEB
1 42472U 11077AM  25258.52981455 -.00000303  00000-0  00000-0 0  9993
2 42472  25.9903   5.4971 7192965 159.9933 257.6447  1.79353479 70104
Epoch: 2025-09-15T12:42Z
TLE epoch observation values (Epoch: 2025-09-15T12:42:55.977Z)
Latitude
0.00002°
Longitude
-179.97557°
Altitude
36,224.082 km
Speed
2.187 km/s
True Right ascension
00h 21m 57s
True Declination
0° 00' 00"
Sunlit
Object was in daylight at epoch
Visualization orbit readout
Latitude
Unknown
Longitude
Unknown
Altitude
Unknown
Speed
Unknown
Apparent Right ascension
Unknown
Apparent Declination
Unknown
Sunlit
N/A
Visualization observer readout
Local Sidereal Time
23:07:08
Azimuth
Unknown
Elevation
Unknown
Doppler factor
Unknown
Orbital elements
Apogee altitude
42,825.358 km
Perigee altitude
1,655.145 km
Semi-major axis
28,618.388 km
Eccentricity
0.7193
Inclination
25.9903°
RAAN
5.4971°
Arg. of periapsis
159.9933°
True anomaly
200.08717°
Mean anomaly
257.6447°
Eccentric anomaly
227.33826°
Mean motion
0.44831 °/min
Orbital period
803.02 mins
BSTAR
0
Loading maneuver chart data...
Computing Atmospheric mass density...
Loading historical data...
Loading historical data...
Loading historical data...
Loading historical data...
Loading historical data...
Loading historical data...
Loading historical data...

Documentation

Showing up to 5 results
|